User: anonymous   Login
Location: Avully
(45.9633°N, 6.0228°E)
Time: 13:04:30
(UTC+00:00)
Language:

Resurs 1-4 Rocket - Orbit

View from above orbital plane
View from above orbital plane
View from above satellite
View from above satellite

Ground track
Ground track

The orbit data is extracted from the following two-line orbital elements,

1 25400U 98043G   24196.06876951  .00000176  00000-0  92720-4 0  9997
2 25400  98.7452 137.0670 0009345 332.5840  27.4845 14.25768189353190
Epoch (UTC): 14 July 2024 01:39:01
Eccentricity: 0.0009345
inclination: 98.7452°
perigee height: 799 km
apogee height: 812 km
right ascension of ascending node: 137.0670°
argument of perigee: 332.5840°
revolutions per day: 14.25768189
mean anomaly at epoch: 27.4845°
orbit number at epoch: 35319

The dashed part of the orbit path shows where the satellite is in the earth's shadow,  

DLR